Regional Weather Roundup
Issued by NWS Boston, MA

Home | Current Version | Previous Version | Text Only | Print | Product List | Glossary On
Versions: 1 2 3 4 5 6 7 8 9 10 11 12 13 14 15 16 17 18 19 20 21 22 23 24 25 26 27 28 29 30 31 32 33 34 35 36 37 38 39 40 41 42 43 44 45 46 47 48 49 50
000
ASUS41 KBOX 291210
RWRBOX

REGIONAL WEATHER ROUNDUP
NATIONAL WEATHER SERVICE TAUNTON MA
700 AM EST THU JAN 29 2015

NOTE:  "FAIR" INDICATES FEW OR NO CLOUDS BELOW 12,000 FEET WITH NO
SIGNIFICANT WEATHER AND/OR OBSTRUCTIONS TO VISIBILITY.  THE FOLLOWING
OBSERVATION LOCATIONS DO NOT REPORT PRESENT WEATHER...PROVINCETOWN...
SMITHFIELD...BLOCK ISLAND...KEENE...AND OXFORD.

MAZALL-291300-
EASTERN MASSACHUSETTS

CITY           SKY/WX    TMP DP  RH WIND       PRES   REMARKS
BOSTON         PTCLDY    14  -1  51 CALM      30.30R
6HR MIN TEMP:  13; 6HR MAX TEMP:  16;

BEVERLY        PTCLDY    -4  -9  79 NW5       30.29R WCI -15
LAWRENCE       PTCLDY     0  -6  76 CALM      30.31R
BEDFORD        PTCLDY    -8 -12  83 CALM      30.29R
BLUE HILL        N/A     12  -4  48 MISG      30.23R
NORWOOD        PTCLDY   -12 -17  78 CALM      30.30S
MARSHFIELD     PTCLDY     7   3  85 W6        30.30S WCI  -3
PLYMOUTH       PTCLDY     3  -1  83 CALM      30.28S
TAUNTON        PTCLDY    -9 -14  78 CALM      30.28S
NEW BEDFORD    PTCLDY     3  -3  76 CALM      30.28R
$$

MAZALL-291300-
CAPE COD AND THE ISLANDS

CITY           SKY/WX    TMP DP  RH WIND       PRES   REMARKS
FALMOUTH       PTCLDY     9   0  66 NW5       30.28R WCI   0
HYANNIS        CLEAR     26  20  77 N7        30.25R WCI  18
CHATHAM        CLEAR     24  18  77 N5        30.26R WCI  18
PROVINCETOWN   CLEAR     28  18  64 N10G17    30.27R WCI  19
NANTUCKET      CLEAR     27  21  78 N10       30.26R WCI  17
MARTHAS VNYRD  CLEAR     16   9  74 NW7       30.27R WCI   6
$$

MAZALL-291300-
CENTRAL AND WESTERN MASSACHUSETTS

CITY           SKY/WX    TMP DP  RH WIND       PRES   REMARKS
WORCESTER      PTCLDY    19  -7  31 N5        30.23R WCI  12
6HR MIN TEMP:   8; 6HR MAX TEMP:  20;

FITCHBURG      MOCLDY    -8 -13  78 CALM      30.30R
ORANGE         PTCLDY    -8 -12  83 CALM      30.29R
SPRINGFIELD    PTCLDY   -11 -16  77 NW2       30.31R
WESTFIELD      PTCLDY    -3  -9  75 CALM      30.32R
NORTH ADAMS    MOCLDY    -9 -15  75 CALM      30.31R
PITTSFIELD     MOCLDY    -3  -7  82 CALM      30.23R
$$

RIZALL-291300-
RHODE ISLAND

CITY           SKY/WX    TMP DP  RH WIND       PRES   REMARKS
PROVIDENCE     MOCLDY     5  -1  76 W3        30.30R
6HR MIN TEMP:   3; 6HR MAX TEMP:  16;

NEWPORT        PTCLDY    13  -2  51 N8        30.28R WCI   2
BLOCK ISLAND   PTCLDY    21   9  58 N6        30.27R WCI  14
SMITHFIELD     PTCLDY     9  -9  43 CALM      30.25R
WESTERLY       PTCLDY     1  -5  75 N6        30.31R WCI -10
$$

CTZALL-291300-
CONNECTICUT

CITY           SKY/WX    TMP DP  RH WIND       PRES   REMARKS
BRADLEY INTL   PTCLDY     1  -7  68 CALM      30.32R
6HR MIN TEMP:   1; 6HR MAX TEMP:  14;

HARTFORD       PTCLDY     1  -3  83 SW6       30.34S WCI -10
BRIDGEPORT     PTCLDY    13   3  64 CALM      30.32R
DANBURY        PTCLDY    -2  -9  72 CALM      30.31R
GROTON         PTCLDY     8  -3  61 NE5       30.31R WCI   0
NEW HAVEN      PTCLDY    13   0  56 N6        30.32R WCI   4
CHESTER        FAIR      14   0  52 NW7       30.29S WCI   4
MERIDEN        PTCLDY    -1  -6  79 CALM      30.33S
WILLIMANTIC    PTCLDY    -9 -15  75 NE3       30.31R
OXFORD         PTCLDY     7 -15  36 N7        30.26R WCI  -5
$$

MEZ002-015-021-024-NHZ003-005-008-011-012-014-VTZ005-008-291300-
NORTHERN NEW ENGLAND

CITY           SKY/WX    TMP DP  RH WIND       PRES   REMARKS
PORTLAND ME    PTCLDY    -1  -5  82 NW5       30.28F WCI -11
6HR MIN TEMP:  -3; 6HR MAX TEMP:  10;

BANGOR ME      PTCLDY    -6  -9  86 S3        30.28R
CONCORD NH     PTCLDY    -6 -12  75 CALM      30.30R
MANCHESTER NH  MOCLDY    -1  -6  79 N3        30.28R
NASHUA NH      MOCLDY    -8 -13  77 NW5       30.32R WCI -19
PORTSMOUTH NH  PTCLDY    -2  -7  81 W3        30.27S
JAFFREY NH     PTCLDY   -11 -15  82 S5        30.23R WCI -23
KEENE NH       FAIR      -9 -11  92 CALM      30.30R
BURLINGTON VT  MOCLDY    -3  -9  75 CALM      30.32R
MT. WASHINGTON NOT AVBL
$$

NYZ052-076-291300-
EASTERN NEW YORK

CITY           SKY/WX    TMP DP  RH WIND       PRES   REMARKS
ALBANY         MOCLDY     0  -6  76 N3        30.34R
6HR MIN TEMP:  -4; 6HR MAX TEMP:   4;

NEW YORK CITY  PTCLDY    21   4  47 N7        30.32S WCI  12
6HR MIN TEMP:  21; 6HR MAX TEMP:  24;

$$

ANZALL-291300-
MARINE OBSERVATIONS

STATION/POSITION TIME  TEMP    WIND        PRES    VSBY  WAVE
                       AIR SEA DIR/SP/G                  HT/PER
                 (UTC) (F)     (DEG/KT/KT) (MB)    (MI)  (FT/S)
BOSTON BUOY      1150   26 40  350/ 10/ 12 1025.3R         4/11
BUZZARDS BAY     1100          360/ 13/ 14 1025.6R
NANTUCKET SOUND  NOT AVBL
MASS BAY-STELLWA 1104   22 40  340/ 12/ 14   N/A    1 7/8  5/ 8
ISLE OF SHOALS   1200   20     320/  8/  9 1024.9R
S OF BLOCK IS    1108      43                N/A           3/11
$$

......................KEY.........................
  SKY/WX - SKY CONDITION/PRESENT WEATHER
  TMP    - TEMPERATURE IN FAHRENHEIT
  DWPT   - DEWPOINT IN FAHRENHEIT
  RH     - RELATIVE HUMIDITY IN PERCENT
  WIND   - DIRECTION AND SPEED IN MPH
  PRES   - MEAN SEA LEVEL PRESSURE IN INCHES OF HG
  WCI    - WIND CHILL INDEX
  VSB    - VISIBILITY IN MILES
  HX     - HEAT INDEX
  TC     - TEMPERATURE IN CELSIUS
  VRB    - VARIABLE WIND DIRECTION
  N/A    - NOT AVAILABLE



USA.gov is the U.S. government's official web portal to all federal, state and local government web resources and services.